Location: Wells
(51.2093°N, 2.6446°W)
Time: 23:46:55
(UTC+00:00)

LilacSat-2 - Visible Passes

Search period start: 14 March 2026 00:00
Search period end: 24 March 2026 00:00
Orbit: 418 x 426 km, 97.5° (Epoch: 14 March)

Date Brightness Start Highest point End Pass type
(mag) Time Alt. Az. Time Alt. Az. Time Alt. Az.
14 Mar ? 19:43:46 10° SSW 19:46:45 33° W 19:49:45 10° NNW visible
15 Mar ? 18:59:54 10° SSE 19:03:08 68° ENE 19:06:25 10° N visible
16 Mar ? 19:48:55 10° SSW 19:51:48 29° W 19:54:43 10° NW visible
17 Mar ? 19:04:49 10° SSE 19:08:04 78° ENE 19:11:21 10° N visible
18 Mar ? 19:53:54 10° SSW 19:56:40 26° W 19:59:29 10° NW visible
19 Mar ? 19:09:35 10° SSE 19:12:50 89° E 19:16:06 10° NNW visible
20 Mar ? 19:58:42 10° SSW 20:01:22 23° W 20:04:03 10° NW visible
21 Mar ? 19:14:10 10° SSE 19:17:25 81° WSW 19:20:41 10° NNW visible
22 Mar ? 20:03:21 10° SW 20:05:53 21° W 20:08:26 10° NW visible
23 Mar ? 19:18:35 10° S 19:21:49 72° WSW 19:25:05 10° NNW visible
